Location: Marshall
(39.8477°N, 87.1868°W)
Time: 02:46:47
(UTC+00:00)

Envisat - Pass Details

Date: 17 May 2026
Orbit: 761 x 763 km, 98.4° (Epoch: 9 June)

Event Time Altitude Azimuth Distance (km) Brightness Sun altitude
Rises 07:39:13 0° 24° (NNE) 3,230 7.6 -25.1°
Reaches altitude 10° 07:41:47 10° 34° (NE) 2,300 6.5 -24.8°
Maximum altitude 07:46:15 31° 96° (E) 1,319 4.4 -24.4°
Enters shadow 07:48:18 23° 136° (SE) 1,578 4.5 -24.2°
